| time (UTC) | temp C | wind direction | speed KPH | gust KPH | rain 1hr cm | rain 24hr cm | rain mn cm | humidity % | barometer mb |
| 20260502223048 | 23 | 119 | 4.8 | 16.1 | 0.00 | 0.00 | 0.00 | 46 | 1018.9 |
| 20260502223007 | 23 | 76 | 4.8 | 16.1 | 0.00 | 0.00 | 0.00 | 47 | 1022.5 |
| 20260502221543 | 23 | 35 | 4.8 | 19.3 | 0.00 | 0.00 | 0.00 | 44 | 1019.0 |
| 20260502221513 | 23 | 9 | 4.8 | 19.3 | 0.00 | 0.00 | 0.00 | 45 | 1022.6 |
| 20260502220047 | 23 | 342 | 6.4 | 19.3 | 0.00 | 0.00 | 0.00 | 44 | 1018.9 |
| 20260502220007 | 23 | 342 | 4.8 | 17.7 | 0.00 | 0.00 | 0.00 | 44 | 1022.6 |
| 20260502214555 | 23 | 9 | 4.8 | 16.1 | 0.00 | 0.00 | 0.00 | 44 | 1019.2 |
| 20260502214505 | 23 | 49 | 6.4 | 16.1 | 0.00 | 0.00 | 0.00 | 45 | 1022.7 |
| 20260502213045 | 23 | 49 | 11.3 | 25.7 | 0.00 | 0.00 | 0.00 | 43 | 1019.3 |
| 20260502213003 | 23 | 61 | 11.3 | 25.7 | 0.00 | 0.00 | 0.00 | 43 | 1022.9 |
| 20260502211545 | 23 | 82 | 4.8 | 19.3 | 0.00 | 0.00 | 0.00 | 47 | 1019.5 |
| 20260502211502 | 23 | 90 | 4.8 | 19.3 | 0.00 | 0.00 | 0.00 | 47 | 1023.0 |
| 20260502210053 | 23 | 112 | 12.9 | 20.9 | 0.00 | 0.00 | 0.00 | 44 | 1019.7 |
| 20260502210001 | 23 | 66 | 11.3 | 20.9 | 0.00 | 0.00 | 0.00 | 45 | 1023.3 |
| 20260502204601 | 23 | 77 | 8.0 | 24.1 | 0.00 | 0.00 | 0.00 | 47 | 1023.4 |
| 20260502204553 | 23 | 73 | 8.0 | 24.1 | 0.00 | 0.00 | 0.00 | 46 | 1020.0 |
| 20260502203059 | 23 | 44 | 8.0 | 20.9 | 0.00 | 0.00 | 0.00 | 49 | 1023.6 |
| 20260502203050 | 23 | 26 | 8.0 | 20.9 | 0.00 | 0.00 | 0.00 | 49 | 1020.2 |
| 20260502201600 | 23 | 84 | 9.7 | 25.7 | 0.00 | 0.00 | 0.00 | 51 | 1023.8 |
| 20260502201546 | 23 | 82 | 8.0 | 24.1 | 0.00 | 0.00 | 0.00 | 51 | 1020.2 |
| 20260502200100 | 23 | 112 | 9.7 | 27.4 | 0.00 | 0.00 | 0.00 | 48 | 1023.9 |
| 20260502200047 | 23 | 46 | 6.4 | 27.4 | 0.00 | 0.00 | 0.00 | 46 | 1020.3 |
| 20260502194603 | 23 | 57 | 6.4 | 19.3 | 0.00 | 0.00 | 0.00 | 50 | 1024.1 |
| 20260502194544 | 23 | 332 | 6.4 | 24.1 | 0.00 | 0.00 | 0.00 | 49 | 1020.5 |
| 20260502193057 | 23 | 340 | 4.8 | 25.7 | 0.00 | 0.00 | 0.00 | 51 | 1024.1 |
| 20260502193054 | 23 | 14 | 4.8 | 25.7 | 0.00 | 0.00 | 0.00 | 51 | 1020.4 |
| 20260502191600 | 22 | 44 | 9.7 | 25.7 | 0.00 | 0.00 | 0.00 | 51 | 1024.1 |
| 20260502191543 | 22 | 35 | 8.0 | 25.7 | 0.00 | 0.00 | 0.00 | 50 | 1020.5 |
| 20260502190053 | 22 | 46 | 14.5 | 24.1 | 0.00 | 0.00 | 0.00 | 49 | 1024.3 |
| 20260502190044 | 22 | 54 | 11.3 | 24.1 | 0.00 | 0.00 | 0.00 | 50 | 1020.8 |
| 20260502184558 | 22 | 24 | 11.3 | 25.7 | 0.00 | 0.00 | 0.00 | 52 | 1024.5 |
| 20260502184551 | 22 | 5 | 11.3 | 25.7 | 0.00 | 0.00 | 0.00 | 52 | 1020.8 |
| 20260502183053 | 22 | 16 | 9.7 | 20.9 | 0.00 | 0.00 | 0.00 | 53 | 1024.7 |
| 20260502183043 | 22 | 49 | 6.4 | 22.5 | 0.00 | 0.00 | 0.00 | 52 | 1021.0 |
| 20260502181552 | 22 | 40 | 8.0 | 20.9 | 0.00 | 0.00 | 0.00 | 53 | 1025.0 |
| 20260502181545 | 22 | 51 | 8.0 | 24.1 | 0.00 | 0.00 | 0.00 | 52 | 1021.3 |
| 20260502163050 | 21 | 44 | 12.9 | 29.0 | 0.00 | 0.33 | 0.00 | 53 | 1022.1 |
| 20260502163046 | 21 | 49 | 11.3 | 25.7 | 0.00 | 0.33 | 0.00 | 54 | 1025.8 |
| 20260502161545 | 20 | 58 | 8.0 | 24.1 | 0.00 | 0.33 | 0.00 | 53 | 1022.1 |
| 20260502161534 | 20 | 58 | 8.0 | 24.1 | 0.00 | 0.33 | 0.00 | 53 | 1026.0 |
| 20260502151553 | 18 | 335 | 9.7 | 22.5 | 0.00 | 0.33 | 0.00 | 60 | 1021.8 |
| 20260502151530 | 18 | 339 | 8.0 | 17.7 | 0.00 | 0.33 | 0.00 | 61 | 1025.6 |
| 20260502123051 | 10 | 5 | 11.3 | 20.9 | 0.00 | 1.73 | 0.00 | 85 | 1019.9 |
| 20260502123049 | 10 | 340 | 9.7 | 20.9 | 0.00 | 1.73 | 0.00 | 85 | 1023.5 |
| 20260502121545 | 10 | 342 | 8.0 | 16.1 | 0.00 | 1.73 | 0.00 | 86 | 1019.7 |
| 20260502121541 | 10 | 360 | 8.0 | 16.1 | 0.00 | 1.73 | 0.00 | 86 | 1023.3 |
| 20260502114543 | 10 | 336 | 6.4 | 19.3 | 0.00 | 1.80 | 0.00 | 86 | 1019.2 |
| 20260502114535 | 10 | 334 | 8.0 | 19.3 | 0.00 | 1.80 | 0.00 | 87 | 1022.9 |
| 20260502113043 | 10 | 352 | 6.4 | 20.9 | 0.00 | 1.80 | 0.00 | 86 | 1019.1 |
| 20260502113034 | 10 | 355 | 6.4 | 16.1 | 0.00 | 1.80 | 0.00 | 87 | 1022.9 |
| 20260502111546 | 10 | 11 | 8.0 | 19.3 | 0.00 | 1.80 | 0.00 | 86 | 1019.1 |
| 20260502111533 | 10 | 355 | 9.7 | 17.7 | 0.00 | 1.80 | 0.00 | 87 | 1022.8 |
| 20260502110044 | 10 | 352 | 6.4 | 19.3 | 0.00 | 1.80 | 0.00 | 87 | 1019.0 |
| 20260502110030 | 10 | 9 | 8.0 | 19.3 | 0.00 | 1.80 | 0.00 | 87 | 1022.6 |
| 20260502104543 | 10 | 347 | 8.0 | 17.7 | 0.00 | 3.07 | 0.00 | 88 | 1018.8 |
| 20260502104532 | 10 | 355 | 8.0 | 17.7 | 0.00 | 3.10 | 0.00 | 88 | 1022.6 |
| 20260502103101 | 10 | 348 | 3.2 | 16.1 | 0.00 | 3.07 | 0.00 | 89 | 1018.7 |
| 20260502103026 | 10 | 360 | 6.4 | 16.1 | 0.00 | 3.10 | 0.00 | 89 | 1022.5 |
| 20260502101559 | 10 | 336 | 3.2 | 8.0 | 0.00 | 3.07 | 0.00 | 89 | 1018.8 |
| 20260502101524 | 10 | 336 | 3.2 | 8.0 | 0.00 | 3.10 | 0.00 | 90 | 1022.6 |
| 20260502100110 | 10 | 318 | 0.0 | 4.8 | 0.00 | 3.07 | 0.00 | 88 | 1018.8 |
| 20260502091516 | 10 | 325 | 3.2 | 9.7 | 0.00 | 3.89 | 0.00 | 88 | 1021.4 |
| 20260502090105 | 10 | 336 | 1.6 | 6.4 | 0.00 | 3.89 | 0.00 | 88 | 1017.7 |
| 20260502071502 | 11 | 337 | 6.4 | 19.3 | 0.00 | 4.85 | 0.00 | 86 | 1020.6 |
| 20260502070052 | 11 | 328 | 4.8 | 16.1 | 0.00 | 4.85 | 0.00 | 86 | 1017.0 |
| 20260502070001 | 11 | 346 | 3.2 | 16.1 | 0.00 | 4.85 | 0.00 | 86 | 1020.6 |
| 20260502064614 | 11 | 345 | 8.0 | 17.7 | 0.00 | 5.28 | 0.00 | 86 | 1020.7 |
| 20260502064553 | 11 | 348 | 3.2 | 17.7 | 0.00 | 5.28 | 0.00 | 85 | 1017.3 |
| 20260502063108 | 11 | 344 | 4.8 | 16.1 | 0.00 | 5.28 | 0.00 | 85 | 1020.9 |
| 20260502063045 | 11 | 15 | 4.8 | 16.1 | 0.00 | 5.28 | 0.00 | 85 | 1017.4 |
| 20260502061613 | 12 | 21 | 4.8 | 14.5 | 0.00 | 5.28 | 0.00 | 85 | 1020.7 |
| 20260502061555 | 12 | 21 | 3.2 | 14.5 | 0.00 | 5.28 | 0.00 | 84 | 1017.2 |
| 20260502060056 | 12 | 10 | 4.8 | 17.7 | 0.00 | 5.28 | 0.00 | 85 | 1020.9 |
| 20260502060043 | 12 | 5 | 4.8 | 20.9 | 0.00 | 5.28 | 0.00 | 85 | 1017.4 |
| 20260502054555 | 12 | 9 | 6.4 | 20.9 | 0.00 | 5.92 | 0.00 | 85 | 1020.9 |
| 20260502054550 | 12 | 34 | 8.0 | 20.9 | 0.00 | 5.92 | 0.00 | 84 | 1017.5 |
| 20260502053102 | 12 | 28 | 11.3 | 27.4 | 0.00 | 5.92 | 0.00 | 84 | 1020.9 |
| 20260502053052 | 12 | 10 | 11.3 | 27.4 | 0.00 | 5.92 | 0.00 | 84 | 1017.4 |
| 20260502051549 | 12 | 355 | 8.0 | 25.7 | 0.00 | 5.92 | 0.00 | 84 | 1020.6 |
| 20260502050046 | 12 | 23 | 9.7 | 24.1 | 0.00 | 5.92 | 0.00 | 84 | 1016.3 |
| 20260502044543 | 12 | 5 | 4.8 | 24.1 | 0.00 | 5.92 | 5.92 | 84 | 1020.7 |
| 20260502043047 | 12 | 55 | 8.0 | 27.4 | 0.00 | 5.92 | 5.92 | 84 | 1017.1 |
| 20260502043042 | 12 | 49 | 9.7 | 27.4 | 0.00 | 5.92 | 5.92 | 84 | 1020.6 |
| 20260502041550 | 12 | 36 | 12.9 | 30.6 | 0.00 | 5.92 | 5.92 | 84 | 1016.8 |
| 20260502041543 | 12 | 24 | 11.3 | 30.6 | 0.00 | 5.92 | 5.92 | 85 | 1020.3 |
| 20260502040044 | 12 | 321 | 9.7 | 32.2 | 0.00 | 5.92 | 5.92 | 85 | 1017.0 |
| 20260502040040 | 12 | 330 | 11.3 | 30.6 | 0.00 | 5.92 | 5.92 | 85 | 1020.6 |
| 20260502034546 | 12 | 339 | 12.9 | 27.4 | 0.00 | 5.92 | 5.92 | 84 | 1016.9 |
| 20260502034543 | 12 | 348 | 16.1 | 27.4 | 0.00 | 5.92 | 5.92 | 85 | 1020.4 |
| 20260502033048 | 12 | 11 | 11.3 | 30.6 | 0.00 | 5.92 | 5.92 | 84 | 1016.8 |
| 20260502033037 | 12 | 15 | 11.3 | 30.6 | 0.00 | 5.92 | 5.92 | 85 | 1020.1 |
| 20260502031550 | 12 | 40 | 11.3 | 25.7 | 0.00 | 5.92 | 5.92 | 84 | 1016.5 |
| 20260502031535 | 12 | 24 | 14.5 | 25.7 | 0.00 | 5.92 | 5.92 | 85 | 1019.8 |
| 20260502030050 | 12 | 33 | 8.0 | 27.4 | 0.00 | 5.92 | 5.92 | 84 | 1016.4 |
| 20260502030031 | 12 | 33 | 8.0 | 27.4 | 0.00 | 5.92 | 5.92 | 85 | 1019.7 |
| 20260502024545 | 12 | 328 | 9.7 | 25.7 | 0.00 | 5.92 | 5.92 | 84 | 1016.0 |
| 20260502024528 | 12 | 328 | 9.7 | 25.7 | 0.00 | 5.92 | 5.92 | 85 | 1019.0 |
| 20260502023044 | 12 | 29 | 16.1 | 32.2 | 0.00 | 5.92 | 5.92 | 83 | 1015.9 |
| 20260502023026 | 12 | 12 | 17.7 | 32.2 | 0.00 | 5.92 | 5.92 | 84 | 1019.2 |
| 20260502021552 | 13 | 29 | 11.3 | 30.6 | 0.00 | 5.92 | 5.92 | 84 | 1015.5 |
| 20260502021522 | 13 | 53 | 11.3 | 27.4 | 0.00 | 5.92 | 5.92 | 84 | 1018.7 |
| 20260502020118 | 13 | 14 | 16.1 | 30.6 | 0.00 | 5.92 | 5.92 | 84 | 1018.4 |
| 20260502020042 | 13 | 53 | 14.5 | 30.6 | 0.00 | 5.92 | 5.92 | 84 | 1015.1 |
| 20260502014542 | 13 | 5 | 12.9 | 27.4 | 0.00 | 5.92 | 5.92 | 85 | 1014.8 |
| 20260502014514 | 13 | 329 | 11.3 | 27.4 | 0.00 | 5.92 | 5.92 | 86 | 1018.0 |
| 20260502013045 | 14 | 326 | 16.1 | 37.0 | 0.00 | 5.92 | 5.92 | 85 | 1014.4 |
| 20260502013014 | 14 | 23 | 14.5 | 37.0 | 0.00 | 5.92 | 5.92 | 86 | 1017.8 |
| 20260502011543 | 14 | 5 | 12.9 | 30.6 | 0.00 | 5.92 | 5.92 | 85 | 1014.4 |
| 20260502011509 | 14 | 30 | 12.9 | 29.0 | 0.00 | 5.92 | 5.92 | 86 | 1017.7 |
| 20260502010048 | 15 | 49 | 9.7 | 30.6 | 0.00 | 5.92 | 5.92 | 85 | 1013.9 |
| 20260502010004 | 15 | 9 | 9.7 | 30.6 | 0.00 | 5.92 | 5.92 | 85 | 1017.2 |
| 20260502004541 | 15 | 22 | 11.3 | 32.2 | 0.00 | 5.92 | 5.92 | 85 | 1013.8 |
| 20260502004502 | 15 | 355 | 9.7 | 32.2 | 0.00 | 5.92 | 5.92 | 85 | 1017.0 |
| 20260502003106 | 15 | 48 | 8.0 | 24.1 | 0.00 | 5.92 | 5.92 | 86 | 1016.7 |
| 20260502003045 | 15 | 326 | 9.7 | 24.1 | 0.00 | 5.92 | 5.92 | 85 | 1013.5 |
| 20260502001700 | 15 | 21 | 12.9 | 27.4 | 0.00 | 5.92 | 5.92 | 85 | 1016.3 |
| 20260502001543 | 15 | 47 | 12.9 | 25.7 | 0.00 | 5.92 | 5.92 | 84 | 1013.1 |
| 20260502000058 | 15 | 44 | 11.3 | 33.8 | 0.00 | 5.92 | 5.92 | 85 | 1015.8 |
| 20260502000045 | 15 | 26 | 14.5 | 33.8 | 0.00 | 5.92 | 5.92 | 84 | 1013.0 |
| 20260501234559 | 16 | 340 | 16.1 | 38.6 | 0.00 | 5.92 | 5.92 | 84 | 1015.3 |
| 20260501234546 | 16 | 344 | 16.1 | 38.6 | 0.00 | 5.92 | 5.92 | 83 | 1012.5 |
| 20260501233058 | 16 | 348 | 11.3 | 41.8 | 0.00 | 5.92 | 5.92 | 84 | 1015.1 |
| 20260501233046 | 16 | 18 | 14.5 | 41.8 | 0.00 | 5.92 | 5.92 | 83 | 1012.4 |
| 20260501231559 | 16 | 360 | 14.5 | 37.0 | 0.00 | 5.92 | 5.92 | 83 | 1015.0 |
| 20260501231546 | 16 | 341 | 14.5 | 37.0 | 0.00 | 5.92 | 5.92 | 82 | 1012.1 |
| 20260501230101 | 16 | 360 | 14.5 | 30.6 | 0.00 | 5.92 | 5.92 | 83 | 1014.4 |
| 20260501230056 | 16 | 31 | 14.5 | 30.6 | 0.00 | 5.92 | 5.92 | 83 | 1011.4 |
| 20260501224554 | 17 | 51 | 17.7 | 37.0 | 0.00 | 5.92 | 5.92 | 84 | 1014.4 |
| 20260501224551 | 17 | 26 | 16.1 | 37.0 | 0.00 | 5.92 | 5.92 | 83 | 1011.3 |